Powrót do katalogu

COSMOS 886 DEB *

AktywnyLEO
NORAD 19425·DEBRIS·🇷🇺 Russia

Wystrzelony Dec 27, 1976 z Baikonur Cosmodrome

Loading…

Następne Przeloty (najbliższe 24 godziny)

TLE

ŚwieżeSource: Space-Track

Epoka: Sep 13, 2026, 22:51 UTC

1 19425U 76126CC  26256.95276824  .00000320  00000-0  13925-2 0  9994
2 19425  66.2207 247.6811 0325224 141.5579 248.0165 12.77021623626444

Śledź COSMOS 886 DEB * w czasie rzeczywistym z AllMySat

Download on the App Store